Погода в Евлахе

Погода в Евлахе : погода сейчас, прогноз погоды и архив. Всё, что Вы хотите узнать о погоде в Евлахе!

Поиск расширенной информации на нашем сайте:

Другие новости

Новости СМИ2

Главная страница сайта

Новости сайта

03.07.2017

Напоминаем, что на нашем специализированном сайте Метеоцентр.Азия вы можете получить высокодетализированные автоматические прогнозы погоды по пунктам России, СНГ и мира в авиационном формате (включающие направление и скорость ветра, видимость, явления погоды, количество и форму облачности, нижнюю и верхнюю границу облачности).


Погода в Евлахе - сегодня

Время (UTC), дата Ветер
(°,м/с) 
Видим.   Явления Облачность Т
(°С)
Тd
(°С)
f(%) Тe
(°С)
Pmin
(гПа)
dP
(гПа)
Po
(мм)
O2
(г/м3)
Тmin Tmax R s Состояние
почвы
03 13.08.18 320 (СЗ) 20000 м    10/0 средняя 
[Ac lent]
+22 +15 64 +30  1011.8  0.6  758  279           
09 13.08.18 130 (ЮВ) 20000 м    10/10 1000 м 
[Sc diur, vesp]
+27.8 +13 40 +33  1011.2  -1.1  757  274           
12 13.08.18 тихо ()   20000 м    10/10 1000 м 
[Sc diur, vesp]
+29.7 +12.1 34 +34  1009.9  -1.3  756  273           
15 13.08.18 170 (Ю) 20000 м    10/10 1000 м 
[Sc diur, vesp]
+28.8 +14 40 +36  1009.6  -0.3  756  273           
21 13.08.18 160 (Ю) 20000 м    10/0 средняя 
[Ac lent]
+24.6 +15.9 58 +35  1011.9  0.5  758  277           
00 14.08.18 120 (ЮВ) 20000 м    10/0 средняя 
[Ac lent]
+23.3 +16.3 65 +34  1011.9  758  278           
03 14.08.18 140 (ЮВ) 20000 м    10/0 средняя 
[Ac lent]
+23.3 +16.6 66 +35  1013.1  1.2  759  278           
09 14.08.18 150 (ЮВ) 20000 м    10/10 600 м 
[Sc]
+26.3 +16 53 +36  1013.9  -0.3  759  276           
12 14.08.18 180 (Ю) 20000 м    10/10 600 м 
[Sc]
+29.2 +13.2 37 +35  1012.6  -1.3  758  273           
15 14.08.18 140 (ЮВ) 20000 м    6/0 средняя 
[Ac As]
+28.4 +13.9 41 +35  1012.6  758  274           
18 14.08.18 140 (ЮВ) 20000 м    8/0 средняя 
[Ac lent]
+25.6 +15.6 54 +35  1014.2  1.6  759  277    +29.2       
21 14.08.18 130 (ЮВ) 20000 м    8/0 средняя 
[Ac lent]
+25.1 +15 53 +33  1014.2  759  277           
00 15.08.18 130 (ЮВ) 20000 м    8/0 средняя 
[Ac lent]
+23.8 +15.3 59 +33  1013.4  -0.8  759  278           
03 15.08.18 120 (ЮВ) 20000 м    10/10 1000 м 
[Sc diur, vesp]
+23.2 +14.8 59 +31  1014.2  0.8  759  279           
09 15.08.18 150 (ЮВ) 20000 м  слаб. ливневой дождь{гроза}  8/8 1000 м кучево-дожд. 
[Cb cap]
+27.1 +17.3 55 +40  1014.8  -0.3  760  275           
12 15.08.18 120 (ЮВ) 20000 м  {ливн. осадки}  8/0 средняя 
[Ac As]
+31 +12.4 32 +35  1013.4  -1.4  759  272           
15 15.08.18 160 (Ю) 20000 м    8/0 средняя 
[Ac As]
+28.8 +13.1 38 +34  1013.6  0.2  759  274           
21 15.08.18 150 (ЮВ) 20000 м    ясно 
+21.2 +16.3 74 +32  1015.2  0.1  760  281           
00 16.08.18 120 (ЮВ) 20000 м    ясно 
+21.1 +16.1 73 +31  1015.1  -0.1  760  281           
03 16.08.18 тихо ()   20000 м    8/0 
[Sc]
+21.9 +16.4 71 +33  1015.6  0.5  760  280           
06 16.08.18 160 (Ю) 20000 м    ясно 
+27.1 +15.3 48 +36  1015.8  0.2  761  276  +20.5         
09 16.08.18 130 (ЮВ) 20000 м    ясно 
+31.2 +12.9 33 +36  1014  -1.8  759  272           
12 16.08.18 230 (ЮЗ) 20000 м    ясно 
+33 +12.2 28 +37  1011.5  -2.4  757  270           
15 16.08.18 190 (Ю) 20000 м    ясно 
+31.7 +13 32 +37  1011.2  -0.4  757  271           
21 16.08.18 120 (ЮВ) 20000 м    ясно 
+24 +15.8 60 +34  1012.2  0.3  758  277           
Время (UTC), дата Ветер
(°,м/с) 
Видим.   Явления Облачность Т
(°С)
Тd
(°С)
f(%) Тe
(°С)
Pmin
(гПа)
dP
(гПа)
Po
(мм)
O2
(г/м3)
Тmin Tmax R s Состояние
почвы

Для получения пояснительной информации подведите курсор к названию столбца.

ПОГОДА в Евлахе - архив

Всё, что Вы хотите узнать о погоде в Евлахе - удобно и подробно!

Выберите нужную дату (начиная с 1 января 2015* года) и нажмите кнопку "Найти".
Будут отображены архивные сводки погоды по пункту Евлах, начиная с указанной даты.


Отображать данные в формате CSV (для использования в таблицах Excel)


Внимание! Наш архив погоды предназначен исключительно для личного некоммерческого использования в познавательных целях. Если Вам необходимы официальные справки о состоянии погоды (для производственных, юридических, коммерческих и т.п. целей), обращайтесь в органы Росгидромета.

*Примечание: данная дата относится к архиву по метеостанциям СССР (Россия, СНГ, Балтия).
Архив по метеостанциям Зарубежной Европы и Азии (кроме Китая) хранится 10 дней, по другим регионам земного шара (Китай, Африка, Америка, Австралия, Океания) - 1 день.

Евлах - район местоположения метеостанции


Название, широта, долгота, высота метеостанции:
Евлах (АМСГ) 40.6°ш. 47.2°д. 15 м над ур. моря [Азербайджан]

Дополнительная информация

В oтличие oт бoльшинства пoгoдных сайтoв мы публикуем пoдрoбную метеoинфoрмацию в детальнoм прoфессиoнальнoм фoрмате.

Характеристики температуры и влажнoсти вoздуха измеряются на высoте 2 м в тени вдали oт зданий и деревьев.
Скoрoсть ветра измеряется на высoте 10 м (на урoвне рoста челoвека скoрoсть ветра ниже в 1.5-2 раза). Если метеoстанция нахoдится в гoрoде или в лесу, тo скoрoсть ветра занижена на 2-4 м/с пo сравнению с oткрытым местoм. Скoрoсть ветра над акватoриями крупных рек и oзёр, а также на вершинах хoлмoв на 2-5 м/с выше, чем в oбычных услoвиях.
Атмoсфернoе давление в разных тoчках местнoсти мoжет значительнo oтличаться oт давления на метеoстанции, в зависимoсти oт услoвий рельефа (при пoдъёме на 10 м давление пoнижается примернo на 1 мм рт.ст.).